Date,TemperatureHighF,TemperatureAvgF,TemperatureLowF,DewpointHighF,DewpointAvgF,DewpointLowF,HumidityHigh,HumidityAvg,HumidityLow,PressureMaxIn,PressureMinIn,WindSpeedMaxMPH,WindSpeedAvgMPH,GustSpeedMaxMPH,PrecipitationSumIn
2013-1-1,43.7,38.3,36.0,43.2,36.2,31.3,98,92,80,30.07,29.89,6,2,0,0.73
2013-1-5,43.3,37.5,40.1,35.1,18.6,-99.9,82,61,60,30.11,30.09,0,-100,0,0.00
2013-1-6,46.4,40.3,37.4,40.1,37.2,35.7,98,89,69,30.12,29.95,7,2,0,0.01
2013-1-7,56.3,38.3,25.5,35.9,28.7,23.2,98,71,39,30.26,30.06,11,2,0,0.00
2013-1-8,59.7,36.3,23.2,34.3,28.9,22.7,98,79,35,30.24,30.09,5,1,0,0.00
2013-1-9,49.1,41.7,33.3,47.7,38.8,31.1,98,89,81,30.25,30.10,5,1,0,0.01
2013-1-10,62.8,52.3,45.5,54.4,49.5,45.0,98,91,74,30.27,30.01,5,1,0,0.00
2013-1-11,70.3,60.0,51.3,64.2,56.6,50.8,98,89,65,30.00,29.82,7,2,0,0.01
2013-1-12,78.3,67.5,62.4,65.4,63.3,58.9,98,87,62,29.91,29.79,8,3,0,0.00
2013-1-13,71.6,62.3,49.3,61.8,56.7,48.8,98,83,62,29.83,29.72,9,2,0,0.17
2013-1-14,61.7,46.7,37.0,61.1,46.2,36.5,98,98,98,30.11,29.78,7,3,0,2.02
2013-1-15,43.9,41.0,37.0,43.4,40.5,36.5,98,98,98,30.07,29.78,8,3,0,2.96
2013-1-16,49.3,43.4,41.0,48.8,42.9,40.5,98,98,98,29.87,29.70,7,2,0,0.80
2013-1-17,42.1,37.7,32.4,41.6,37.1,31.9,98,97,90,30.06,29.72,11,3,0,1.29
2013-1-18,50.0,32.7,21.0,38.5,29.3,20.5,98,89,50,30.35,30.07,5,1,0,1.05
2013-1-19,55.9,34.1,25.2,36.8,29.0,24.7,98,85,37,30.27,29.98,5,1,0,0.22
2013-1-20,61.0,45.5,35.4,37.7,31.9,28.2,85,60,36,29.98,29.89,7,2,0,0.00
2013-1-21,52.7,36.0,24.8,32.4,22.6,9.6,98,67,19,29.97,29.88,8,2,0,0.00
2013-1-22,35.1,27.9,18.0,12.1,2.9,-8.7,66,36,15,30.16,29.96,6,2,0,0.00
2013-1-23,45.1,33.5,19.2,25.3,11.0,-3.4,66,40,24,30.16,29.89,9,2,0,0.00
2013-1-24,44.2,35.5,24.4,34.3,16.7,-1.5,72,49,20,30.23,29.90,8,4,0,0.00
2013-1-25,32.9,28.2,22.8,32.4,20.7,5.4,98,76,42,30.19,29.86,6,2,0,0.27
2013-1-26,54.3,37.3,28.9,36.0,31.9,28.4,98,84,42,30.11,29.94,7,1,0,0.13
2013-1-27,48.9,34.9,23.4,37.6,29.7,22.9,98,83,57,30.24,30.12,4,1,0,0.00
2013-1-28,61.0,47.4,36.9,51.7,42.5,36.4,98,85,53,30.15,29.99,5,1,0,0.00
2013-1-29,74.7,56.0,41.7,57.0,50.2,41.2,98,83,52,30.01,29.71,5,1,0,0.00
2013-1-30,69.8,59.1,47.5,61.9,55.5,42.8,98,89,67,29.72,29.27,8,4,0,3.28
2013-1-31,48.6,39.0,32.4,45.7,26.9,21.2,98,63,40,29.84,29.29,14,5,0,0.00
2013-2-1,40.8,29.9,19.9,30.8,14.0,7.8,88,53,27,30.20,29.75,9,3,0,0.00
2013-2-2,36.5,26.3,17.6,30.3,20.6,12.5,98,79,61,30.18,29.85,7,2,0,0.00
2013-2-3,47.3,37.8,32.7,37.3,30.5,23.1,98,76,50,29.95,29.77,10,4,0,0.08
2013-2-4,51.4,33.2,20.8,29.8,24.7,18.3,98,75,35,29.96,29.72,5,1,0,0.00
2013-2-5,63.3,48.6,41.5,42.6,35.5,29.0,75,61,42,29.80,29.70,8,3,0,0.00
2013-2-6,69.3,47.1,29.8,44.6,33.8,18.1,98,69,14,29.99,29.75,5,1,0,0.00
2013-2-7,55.6,44.8,38.5,47.2,35.5,30.2,98,71,45,29.96,29.73,5,0,0,0.01
2013-2-8,59.4,46.6,39.9,50.5,41.6,30.8,98,85,47,30.04,29.66,12,3,0,0.13
2013-2-9,59.5,41.8,26.4,32.3,26.4,15.6,97,60,18,30.15,30.03,7,3,0,0.00
2013-2-10,65.7,44.5,33.8,48.8,32.4,21.0,98,68,21,30.04,29.78,7,1,0,0.24
2013-2-11,58.8,50.7,45.0,56.4,46.2,33.9,98,86,49,29.87,29.73,7,2,0,0.01
2013-2-12,59.5,45.6,32.9,37.9,30.6,25.8,98,60,29,29.97,29.72,8,2,0,0.01
2013-2-13,47.5,42.7,38.3,47.0,41.3,34.9,98,95,80,29.73,29.46,7,2,0,0.37
2013-2-14,58.1,43.1,35.2,37.6,35.2,32.4,98,77,42,29.85,29.72,7,2,0,0.00
2013-2-15,61.5,44.0,32.0,41.6,36.0,30.1,98,75,45,29.89,29.79,8,2,0,0.08
2013-2-16,41.7,33.1,25.0,38.7,23.1,10.0,98,69,27,29.90,29.79,11,3,0,0.00
2013-2-17,48.9,30.0,16.9,18.4,11.0,0.0,84,51,13,30.06,29.87,7,2,0,0.00
2013-2-18,63.3,38.1,20.1,28.5,21.0,13.5,89,57,24,30.09,29.78,8,2,0,0.00
2013-2-19,58.6,47.2,40.8,43.7,29.7,8.1,98,58,17,29.87,29.69,13,5,0,0.27
2013-2-20,45.7,35.1,23.5,20.7,15.1,-0.6,80,46,16,30.03,29.88,6,2,0,0.00
2013-2-21,56.3,36.8,21.6,41.2,19.1,13.4,98,53,20,30.03,29.78,9,2,0,0.06
2013-2-22,58.6,46.4,38.7,49.0,43.2,38.2,98,89,66,29.89,29.75,5,1,0,0.12
2013-2-23,59.5,49.3,44.2,50.2,47.0,43.7,98,92,69,29.81,29.61,4,1,0,0.10
2013-2-24,63.0,45.2,29.3,45.5,31.2,18.8,98,68,18,29.86,29.65,8,2,0,0.01
2013-2-25,62.6,41.6,29.1,35.7,28.8,23.9,89,64,29,29.86,29.61,6,2,0,0.00
2013-2-26,68.0,50.4,44.4,52.0,42.5,33.5,98,75,56,29.61,29.20,12,3,0,0.28
2013-2-27,49.8,42.9,39.6,38.3,35.0,33.0,85,74,57,29.63,29.41,9,4,0,0.01
2013-2-28,42.1,38.5,35.4,34.5,28.8,24.4,86,68,52,29.77,29.59,9,4,0,0.00
2013-3-1,42.6,37.1,34.3,35.9,31.6,26.8,98,80,66,29.78,29.70,4,2,0,0.06
2013-3-2,40.1,34.7,31.3,35.8,30.9,20.6,98,87,62,29.84,29.71,11,2,0,0.24
2013-3-3,39.4,30.8,21.7,22.5,18.2,14.4,81,60,42,29.88,29.81,7,3,0,0.00
2013-3-4,59.2,33.9,15.6,28.9,18.1,11.7,98,61,16,29.98,29.75,5,1,0,0.00
2013-3-5,49.1,40.1,34.9,48.6,36.2,25.4,98,87,57,29.81,29.40,10,2,0,1.95
2013-3-6,38.1,32.8,29.7,33.4,28.6,24.0,98,84,76,30.02,29.63,8,3,0,0.02
2013-3-7,40.1,35.0,32.0,32.2,29.3,26.6,98,81,65,30.14,30.00,8,2,0,0.01
2013-3-8,57.4,39.7,25.2,30.0,26.6,24.1,98,64,29,30.19,30.05,7,3,0,0.00
2013-3-9,72.5,45.4,27.0,34.7,28.9,22.1,98,61,15,30.10,29.95,6,2,0,0.00
2013-3-10,78.3,55.5,37.8,41.0,33.9,23.4,96,54,13,29.96,29.73,7,1,0,0.00
2013-3-11,66.4,59.9,50.7,56.1,46.2,28.5,98,64,27,29.76,29.51,14,5,0,0.94
2013-3-12,60.1,46.2,37.9,49.5,37.8,32.9,98,76,39,29.85,29.61,6,2,0,0.08
2013-3-13,50.5,38.9,29.8,34.2,26.0,16.9,98,64,31,30.07,29.84,12,3,0,0.00
2013-3-14,52.7,37.1,24.1,21.0,16.9,11.9,74,46,20,30.19,30.00,8,3,0,0.00
2013-3-15,71.4,49.5,28.8,44.0,33.9,19.7,98,59,32,30.04,29.66,7,2,0,0.00
2013-3-16,80.8,67.0,59.9,49.5,45.9,42.1,54,47,32,29.67,29.52,14,5,0,0.00
2013-3-17,80.1,66.1,54.3,51.8,48.0,45.9,78,53,37,29.74,29.58,7,3,0,0.00
2013-3-18,68.0,55.5,49.1,57.3,50.1,44.4,98,83,55,29.67,29.53,8,2,0,1.19
2013-3-19,67.1,51.9,33.4,52.4,30.6,-3.1,98,58,8,29.90,29.56,10,3,0,0.10
2013-3-20,61.5,45.7,28.0,33.0,12.9,2.6,77,31,11,29.92,29.65,9,3,0,0.00
2013-3-21,48.7,34.2,22.8,27.2,12.0,6.3,65,42,19,29.80,29.71,9,3,0,0.00
2013-3-22,51.1,34.3,21.2,26.2,17.7,14.1,84,54,24,29.85,29.75,5,1,0,0.00
2013-3-23,58.1,45.2,38.8,44.5,37.1,26.0,98,74,53,29.81,29.59,8,2,0,0.03
2013-3-24,56.5,49.1,44.8,53.9,47.0,40.1,98,93,74,29.58,29.11,9,2,0,0.94
2013-3-25,46.2,36.1,31.8,43.4,30.7,26.0,98,81,63,29.77,29.26,18,5,0,0.08
2013-3-26,42.1,35.0,31.3,32.4,28.4,26.3,90,78,56,30.05,29.77,6,2,0,0.03
2013-3-27,58.6,40.8,29.3,32.4,26.8,20.9,98,64,23,30.12,30.03,6,2,0,0.00
2013-3-28,65.3,41.6,22.8,31.3,20.2,0.8,98,58,8,30.15,30.01,7,2,0,0.00
2013-3-29,49.6,38.4,27.5,43.6,31.4,19.0,98,77,43,30.15,30.01,4,1,0,0.16
2013-3-30,69.4,50.7,41.5,48.9,44.2,41.0,98,82,44,30.03,29.79,5,2,0,0.19
2013-3-31,64.9,55.8,50.9,58.4,53.9,49.4,98,94,70,29.81,29.61,6,2,0,1.22
2013-4-1,71.4,55.1,41.5,53.5,44.7,35.4,98,74,32,29.83,29.64,9,2,0,0.01
2013-4-2,63.7,48.5,33.8,35.2,22.7,7.7,68,40,11,30.02,29.83,6,2,0,0.00
2013-4-3,60.3,47.4,31.5,24.6,19.7,15.0,70,36,18,30.07,29.96,12,3,0,0.00
2013-4-4,50.0,44.0,40.8,43.0,34.3,18.2,98,75,30,29.99,29.77,7,2,0,1.03
2013-4-5,71.4,52.0,38.8,46.0,39.0,26.8,98,70,19,29.87,29.75,7,2,0,0.01
2013-4-6,80.1,54.4,33.1,43.9,37.6,30.6,98,63,18,29.98,29.82,6,1,0,0.00
2013-4-7,79.3,63.7,43.2,47.8,41.2,34.3,83,46,27,29.94,29.80,9,3,0,0.00
2013-4-8,84.2,64.5,48.0,55.5,49.2,44.8,90,62,31,29.87,29.75,10,2,0,0.00
2013-4-9,88.9,69.2,51.1,57.9,53.9,50.2,98,63,31,29.95,29.75,8,2,0,0.00
2013-4-10,93.9,73.0,52.9,60.2,56.4,52.4,98,61,27,29.88,29.63,7,2,0,0.00
2013-4-11,88.9,73.8,62.4,64.8,56.6,52.1,98,57,29,29.66,29.37,12,3,0,0.41
2013-4-12,72.1,61.2,53.1,62.0,49.8,36.9,98,71,30,29.68,29.33,8,3,0,0.47
2013-4-13,80.8,57.2,39.0,47.9,39.7,27.2,98,61,14,29.84,29.69,7,1,0,0.00
2013-4-14,75.7,55.9,40.6,56.4,45.5,40.1,98,73,33,29.83,29.70,5,1,0,0.02
2013-4-15,88.0,66.8,52.0,59.5,55.5,51.5,98,73,35,29.82,29.69,6,1,0,0.00
2013-4-16,91.8,69.7,52.2,63.8,58.9,51.7,98,74,37,30.01,29.82,5,1,0,0.00
2013-4-17,76.8,66.7,61.9,65.1,62.5,60.1,98,87,65,30.02,29.83,8,2,0,0.00
2013-4-18,87.3,70.2,56.8,65.8,57.6,51.1,98,71,30,29.87,29.61,12,2,0,0.00
2013-4-19,74.8,62.2,45.7,64.9,52.9,37.5,98,74,54,29.81,29.42,9,4,0,1.73
2013-4-20,71.1,49.9,30.6,40.0,31.4,23.1,98,57,17,30.05,29.82,9,2,0,0.00
2013-4-21,74.8,52.1,36.3,42.1,35.8,30.3,98,62,20,30.17,30.02,9,2,0,0.00
2013-4-22,78.3,57.3,39.0,44.9,40.8,36.7,98,61,24,30.13,29.90,10,2,0,0.00
2013-4-23,82.4,58.8,41.0,51.5,44.9,38.4,98,67,28,30.01,29.79,5,1,0,0.00
2013-4-24,76.3,60.1,47.8,64.7,53.7,47.3,98,81,51,29.99,29.75,11,2,0,0.37
2013-4-25,76.5,53.9,36.9,47.2,38.3,24.9,98,64,15,30.13,30.00,6,2,0,0.00
2013-4-26,76.5,53.0,35.6,47.4,39.1,33.3,98,67,24,30.21,30.07,6,1,0,0.00
2013-4-27,57.6,54.5,51.6,57.0,52.3,42.3,98,93,57,30.15,29.89,3,1,0,1.14
2013-4-28,59.9,55.8,51.8,59.3,55.2,51.3,98,98,98,29.91,29.70,8,1,0,2.10
2013-4-29,84.2,63.8,52.5,60.9,55.9,51.9,98,80,33,29.81,29.69,6,1,0,0.00
2013-4-30,92.3,65.9,48.9,61.0,53.6,48.4,98,73,23,29.86,29.74,4,1,0,0.00
2013-5-1,84.7,68.3,55.9,63.3,57.4,52.5,98,72,40,29.97,29.81,8,2,0,0.00
2013-5-2,84.6,65.5,52.3,66.5,56.9,51.8,98,77,39,29.98,29.85,7,1,0,0.19
2013-5-3,83.1,64.8,52.9,60.6,54.2,47.8,98,74,33,29.90,29.72,7,2,0,0.01
2013-5-4,64.4,59.4,54.3,58.2,50.6,37.5,98,75,45,29.76,29.67,5,2,0,0.70
2013-5-5,60.8,55.0,52.0,60.2,54.4,51.5,98,98,98,29.70,29.53,6,2,0,1.50
2013-5-6,68.7,55.3,49.3,54.8,50.7,48.5,98,86,52,29.68,29.54,7,2,0,0.29
2013-5-7,74.1,57.4,46.2,57.4,51.3,45.7,98,82,45,29.75,29.66,4,1,0,0.00
2013-5-8,80.4,63.8,56.3,64.6,58.4,55.7,98,85,47,29.82,29.71,6,2,0,0.26
2013-5-9,91.0,67.4,52.5,64.8,58.0,52.0,98,77,31,29.89,29.76,6,1,0,0.01
2013-5-10,76.8,66.5,55.8,63.7,59.9,55.2,98,81,58,29.84,29.69,7,2,0,0.00
2013-5-11,75.9,67.5,60.3,69.3,60.9,52.3,98,80,65,29.73,29.62,6,2,0,0.23
2013-5-12,76.6,58.8,49.3,53.5,40.8,21.1,98,59,13,29.89,29.73,9,2,0,0.00
2013-5-13,77.2,53.2,35.4,44.5,35.6,21.3,98,61,14,30.02,29.90,6,1,0,0.00
2013-5-14,84.7,58.9,37.6,55.6,45.5,37.1,98,67,31,30.03,29.78,8,2,0,0.00
2013-5-15,92.8,74.7,63.1,60.8,56.5,54.0,76,56,28,29.91,29.72,9,3,0,0.00
2013-5-16,89.8,73.0,62.6,63.8,58.4,54.9,79,62,36,29.83,29.70,6,1,0,0.00
2013-5-17,91.6,71.6,59.4,68.3,62.7,58.8,98,77,37,29.86,29.74,5,1,0,0.28
2013-5-18,77.9,69.2,64.0,73.2,67.3,63.4,98,94,72,29.83,29.75,5,1,0,0.49
2013-5-19,80.4,69.4,64.9,74.8,68.2,64.3,98,96,74,29.83,29.76,5,1,0,0.29
2013-5-20,94.8,71.9,59.7,74.1,65.4,59.1,98,84,40,29.91,29.73,5,1,0,0.01
2013-5-21,98.2,74.8,63.1,76.4,67.6,62.5,98,82,37,29.83,29.68,6,1,0,0.00
2013-5-22,93.6,71.6,61.0,76.9,66.1,60.4,98,85,43,29.75,29.58,8,1,0,0.13
2013-5-23,88.5,72.3,64.8,71.7,63.3,53.9,98,77,40,29.75,29.64,8,2,0,0.00
2013-5-24,80.6,65.2,55.0,60.2,50.2,39.4,98,63,24,30.04,29.74,10,3,0,0.00
2013-5-25,87.6,60.3,42.4,52.4,44.0,30.1,98,65,14,30.14,29.95,6,1,0,0.00
2013-5-26,89.1,64.7,51.6,58.2,52.9,45.3,98,72,22,30.09,29.94,5,1,0,0.01
2013-5-27,91.6,69.1,52.2,63.0,57.6,51.7,98,73,33,30.01,29.84,7,1,0,0.00
2013-5-28,94.5,74.8,59.7,70.1,63.0,59.1,98,72,32,29.96,29.83,7,2,0,0.00
2013-5-29,96.6,76.5,58.8,71.4,63.4,57.9,98,68,35,29.99,29.85,5,1,0,0.00
2013-5-30,97.7,75.2,59.2,70.6,63.5,58.6,98,73,29,30.01,29.86,5,1,0,0.00
2013-5-31,94.5,75.2,59.7,71.0,63.5,58.8,98,73,31,29.95,29.80,7,2,0,0.00
2013-6-1,94.3,77.5,63.5,73.5,65.4,59.5,98,70,34,29.85,29.70,8,2,0,0.01
2013-6-2,81.7,70.7,66.9,80.5,70.1,66.3,98,98,96,29.78,29.63,7,2,0,2.67
2013-6-3,93.0,73.7,66.0,76.9,67.3,62.7,98,83,38,29.75,29.64,7,1,0,0.01
2013-6-4,93.7,72.4,57.4,75.1,63.2,56.8,98,79,34,29.83,29.74,7,1,0,0.00
2013-6-5,95.5,71.3,61.7,77.8,67.2,61.1,98,90,42,29.82,29.66,9,1,0,2.91
2013-6-6,89.4,73.5,64.2,82.9,71.2,63.6,98,94,58,29.71,29.49,5,1,0,0.01
2013-6-7,91.4,75.0,68.5,80.7,70.9,60.7,98,89,45,29.62,29.46,6,1,0,0.05
2013-6-8,92.7,73.4,66.4,82.5,70.2,65.8,98,92,42,29.83,29.61,4,1,0,0.01
2013-6-9,91.6,72.0,63.1,85.4,71.1,62.5,98,97,77,29.86,29.73,5,1,0,0.48
2013-6-10,86.2,73.3,68.2,83.6,72.1,67.6,98,96,67,29.76,29.62,16,3,0,1.05
2013-6-11,95.2,76.1,64.6,86.8,72.6,64.0,98,91,44,29.81,29.73,5,2,0,0.00
2013-6-12,97.2,81.1,68.2,93.8,79.7,67.6,98,96,65,29.81,29.69,6,2,0,0.00
2013-6-13,87.1,78.3,71.6,86.5,77.7,71.0,98,98,98,29.73,29.49,10,3,0,0.44
2013-6-14,90.9,71.8,58.6,75.0,63.2,55.6,98,80,32,29.82,29.67,7,1,0,0.00
2013-6-15,93.2,72.6,57.9,79.3,65.0,57.3,98,82,36,29.91,29.78,8,1,0,0.00
2013-6-16,93.9,76.4,62.8,83.6,71.4,62.2,98,87,44,29.89,29.74,6,1,0,0.66
2013-6-17,87.8,75.2,69.6,86.5,74.6,69.0,98,98,93,29.85,29.69,4,1,0,0.52
2013-6-18,79.0,71.5,66.2,78.4,70.9,65.6,98,98,98,29.75,29.61,6,2,0,1.30
2013-6-19,92.5,73.6,62.8,82.0,69.1,62.2,98,89,43,29.86,29.72,4,1,0,0.00
2013-6-20,97.2,75.2,62.8,85.7,70.3,62.2,98,89,36,29.97,29.85,5,1,0,0.00
2013-6-21,95.4,75.3,66.6,84.3,72.8,66.0,98,93,40,30.02,29.90,4,1,0,0.00
2013-6-22,95.0,75.3,63.0,85.6,69.7,62.4,98,86,44,30.00,29.87,4,1,0,0.00
2013-6-23,95.0,75.8,62.8,83.3,70.8,62.2,98,87,41,29.98,29.85,5,1,0,0.00
2013-6-24,95.5,77.5,65.3,88.5,73.3,64.7,98,89,48,29.98,29.85,6,1,0,0.00
2013-6-25,93.7,77.1,68.9,90.6,76.3,68.3,98,97,70,29.94,29.79,5,1,0,0.00
2013-6-26,89.2,75.4,68.0,88.6,74.8,67.4,98,98,98,29.83,29.64,6,2,0,0.26
2013-6-27,92.7,77.0,67.1,92.0,76.4,66.5,98,98,98,29.72,29.54,10,3,0,0.96
2013-6-28,91.0,76.9,69.6,90.4,76.3,69.0,98,98,98,29.62,29.41,5,2,0,0.01
2013-6-29,93.0,75.5,65.7,82.9,69.5,62.1,98,85,36,29.48,29.40,7,2,0,0.88
2013-6-30,95.2,76.4,64.2,82.6,69.2,59.6,98,84,31,29.57,29.44,8,1,0,0.00
2013-7-1,85.6,72.0,63.5,85.0,71.4,62.9,98,98,98,29.69,29.54,7,1,0,0.34
2013-7-2,84.6,72.5,65.5,84.0,71.9,64.9,98,98,98,29.83,29.68,5,1,0,0.25
2013-7-3,75.7,69.4,66.2,75.1,68.8,65.6,98,98,98,29.93,29.82,3,0,0,0.85
2013-7-4,80.4,71.4,66.2,79.8,70.8,65.6,98,98,98,29.94,29.84,4,1,0,0.49
2013-7-5,83.1,75.6,69.6,82.5,75.0,69.0,98,98,98,29.95,29.87,4,1,0,0.06
2013-7-6,89.8,73.2,68.0,89.2,72.6,67.4,98,98,98,29.93,29.84,4,1,0,0.92
2013-7-7,72.3,69.5,67.3,71.7,68.9,66.7,98,98,98,29.95,29.85,3,0,0,2.71
2013-7-8,95.0,75.3,66.7,90.1,72.5,66.1,98,93,48,29.99,29.87,4,1,0,0.00
2013-7-9,99.7,78.9,67.3,91.4,76.1,66.7,98,93,42,29.94,29.82,4,1,0,0.00
2013-7-10,95.5,77.2,71.4,93.4,76.5,70.8,98,98,78,29.88,29.68,7,1,0,0.04
2013-7-11,92.3,76.8,70.3,87.6,75.5,69.7,98,96,70,29.75,29.64,7,1,0,0.07
2013-7-12,92.1,75.8,66.6,84.0,71.8,66.0,98,89,47,29.75,29.67,8,2,0,0.00
2013-7-13,93.6,75.1,65.5,83.2,72.1,64.9,98,92,49,29.86,29.72,7,1,0,0.01
2013-7-14,92.5,77.0,67.3,89.2,75.8,66.7,98,96,69,30.01,29.84,5,1,0,0.02
2013-7-15,97.7,78.0,65.7,84.5,72.6,65.1,98,86,44,30.07,29.99,8,1,0,0.00
2013-7-16,97.9,80.4,67.6,87.7,75.2,67.0,98,87,44,30.12,30.00,8,1,0,0.00
2013-7-17,101.5,80.1,68.7,90.6,75.8,68.1,98,89,42,30.09,29.92,7,2,0,0.04
2013-7-18,99.0,79.7,70.0,90.1,76.5,69.4,98,92,52,30.04,29.81,5,2,0,0.00
2013-7-19,100.2,81.2,70.0,92.2,77.6,69.4,98,91,47,29.89,29.73,6,1,0,0.00
2013-7-20,96.6,80.5,72.1,88.6,78.0,71.5,98,93,58,29.80,29.66,6,2,0,0.00
2013-7-21,89.6,75.7,70.3,89.0,75.1,69.7,98,98,98,29.78,29.71,5,1,0,0.64
2013-7-22,86.9,75.0,70.5,86.3,74.4,69.9,98,98,98,29.78,29.60,7,2,0,0.45
2013-7-23,90.0,76.0,69.8,89.4,75.4,69.2,98,98,98,29.71,29.59,7,2,0,0.07
2013-7-24,93.7,76.9,69.1,88.8,76.0,68.5,98,97,70,29.68,29.58,7,2,0,0.08
2013-7-25,94.8,75.1,64.8,81.3,69.6,64.2,98,86,41,29.82,29.66,8,2,0,0.00
2013-7-26,95.0,72.7,60.3,82.8,69.9,59.7,98,93,51,29.85,29.74,6,1,0,0.20
2013-7-27,81.5,73.0,67.6,80.9,72.4,67.0,98,98,98,29.79,29.63,4,1,0,0.07
2013-7-28,90.7,75.6,64.9,82.2,71.1,64.3,98,88,47,29.86,29.68,6,2,0,0.00
2013-7-29,94.5,70.5,56.3,76.2,62.5,53.9,98,81,29,29.98,29.85,6,1,0,0.00
2013-7-30,86.0,69.8,57.7,78.0,67.7,57.1,98,94,68,30.02,29.90,4,1,0,0.00
2013-7-31,80.8,72.0,65.3,80.2,71.4,64.7,98,98,98,29.91,29.72,6,1,0,0.11
2013-8-1,92.8,77.4,68.7,83.1,73.8,68.1,98,90,54,29.75,29.68,6,2,0,0.00
2013-8-2,99.0,76.2,63.1,81.3,69.7,62.5,98,84,36,29.83,29.74,7,1,0,0.00
2013-8-3,89.6,75.7,66.0,85.2,74.4,65.4,98,96,73,29.81,29.73,6,2,0,0.00
2013-8-4,94.6,78.3,67.8,81.6,72.3,64.2,98,85,37,29.85,29.77,6,2,0,0.00
2013-8-5,94.1,74.1,60.3,78.6,66.8,51.7,98,83,24,29.87,29.73,6,1,0,0.00
2013-8-6,93.0,77.2,68.0,85.8,74.4,67.4,98,92,63,29.79,29.71,6,1,0,0.06
2013-8-7,89.6,77.2,72.0,89.0,76.6,71.4,98,98,98,29.81,29.70,6,1,0,0.21
2013-8-8,88.3,76.9,70.5,87.7,76.3,69.9,98,98,98,29.82,29.73,5,1,0,0.00
2013-8-9,97.2,78.4,70.2,91.4,77.0,69.6,98,96,73,29.84,29.74,13,2,0,0.14
2013-8-10,97.0,77.1,71.2,91.8,75.8,70.6,98,96,65,29.89,29.81,5,1,0,1.31
2013-8-11,93.2,76.3,70.0,89.4,75.3,69.4,98,97,75,29.93,29.81,8,1,0,0.28
2013-8-12,89.4,76.3,69.1,88.8,75.7,68.5,98,98,98,29.89,29.74,6,1,0,0.01
2013-8-13,88.5,77.2,71.2,87.9,76.6,70.6,98,98,98,29.75,29.63,9,2,0,0.38
2013-8-14,84.9,72.1,61.2,78.2,68.4,60.6,98,90,54,29.85,29.71,7,2,0,0.00
2013-8-15,91.6,71.4,59.9,79.5,67.6,59.3,98,90,49,29.87,29.75,6,2,0,0.00
2013-8-16,89.2,73.4,65.5,81.6,71.0,64.9,98,93,56,29.88,29.78,7,1,0,0.00
2013-8-17,78.4,69.9,64.0,77.5,69.2,63.4,98,98,85,29.91,29.84,6,1,0,0.28
2013-8-18,87.8,72.3,66.6,83.8,71.2,66.0,98,97,71,29.97,29.87,5,1,0,0.26
2013-8-19,88.5,74.0,68.4,84.1,73.4,67.8,98,98,84,29.93,29.83,5,1,0,0.07
2013-8-20,91.6,75.5,68.0,85.6,74.5,67.4,98,97,71,29.96,29.85,4,1,0,0.00
2013-8-21,84.2,74.0,69.3,83.6,73.4,68.7,98,98,98,29.99,29.88,3,1,0,0.21
2013-8-22,96.8,78.7,69.3,90.3,75.7,68.7,98,92,56,29.96,29.80,5,1,0,0.00
2013-8-23,95.9,75.1,67.8,85.2,73.4,67.2,98,95,64,29.87,29.78,5,1,0,0.52
2013-8-24,95.5,75.4,66.4,86.8,70.3,65.5,98,88,42,30.00,29.85,6,2,0,0.00
2013-8-25,93.0,73.2,61.0,80.9,67.5,60.4,98,86,42,30.14,30.00,6,1,0,0.00
2013-8-26,97.0,72.7,59.2,81.8,67.8,58.6,98,88,43,30.11,29.91,5,1,0,0.00
2013-8-27,92.3,74.3,63.5,86.8,72.7,62.9,98,95,69,29.94,29.80,8,1,0,0.00
2013-8-28,95.5,78.1,67.1,89.4,75.1,66.5,98,92,60,29.85,29.74,4,1,0,0.00
2013-8-29,96.1,80.6,72.0,88.5,78.0,71.4,98,93,66,29.80,29.69,6,1,0,0.00
2013-8-30,98.6,79.6,69.6,89.2,76.2,69.0,98,91,52,29.79,29.66,5,1,0,0.00
2013-8-31,98.4,80.9,70.0,90.8,77.7,69.4,98,91,57,29.74,29.60,9,2,0,1.47
2013-9-1,92.5,75.8,69.1,87.6,74.8,68.5,98,97,79,29.68,29.58,7,2,0,0.17
2013-9-2,91.9,76.3,68.4,88.8,75.6,67.8,98,98,84,29.73,29.60,7,2,0,0.00
2013-9-3,91.6,75.7,65.8,83.4,73.2,65.2,98,93,63,29.79,29.63,7,1,0,1.15
2013-9-4,95.4,73.3,61.0,78.0,68.0,60.4,98,87,47,29.90,29.79,5,1,0,0.00
2013-9-5,95.2,72.0,59.7,80.5,66.6,59.1,98,87,44,29.95,29.87,5,1,0,0.00
2013-9-6,97.5,73.6,60.8,79.3,67.1,60.2,98,84,41,29.95,29.82,6,1,0,0.00
2013-9-7,93.2,73.2,60.1,80.5,69.2,59.5,98,89,56,29.90,29.76,8,1,0,0.00
2013-9-8,94.1,76.0,65.3,83.8,72.4,64.7,98,90,56,29.79,29.71,4,1,0,0.00
2013-9-9,99.0,77.2,64.8,85.0,72.3,64.2,98,88,46,29.88,29.77,6,1,0,0.00
2013-9-10,100.6,78.8,65.5,86.1,73.3,64.9,98,87,47,30.00,29.88,6,1,0,0.00
2013-9-11,100.2,77.7,66.6,84.9,73.4,66.0,98,89,44,30.02,29.86,6,1,0,0.00
2013-9-12,86.5,73.8,67.3,84.6,73.1,66.7,98,98,94,29.88,29.66,9,1,0,0.73
2013-9-13,85.5,70.3,55.6,73.9,64.0,55.0,98,84,45,29.77,29.66,9,2,0,0.01
2013-9-14,86.4,63.4,49.3,67.9,57.1,48.8,98,84,40,29.86,29.75,9,1,0,0.00
2013-9-15,89.2,67.1,51.6,78.9,62.8,51.1,98,89,54,29.96,29.84,5,1,0,0.00
2013-9-16,91.8,70.5,59.7,78.9,66.8,59.1,98,90,49,29.95,29.87,7,1,0,0.00
2013-9-17,84.6,70.2,61.9,77.8,67.6,61.3,98,92,70,30.00,29.89,5,1,0,0.00
2013-9-18,77.0,67.7,62.1,76.4,67.1,61.5,98,98,98,30.01,29.90,3,0,0,0.00
2013-9-19,93.9,71.4,60.1,80.0,68.1,59.5,98,91,54,29.97,29.81,4,1,0,0.00
2013-9-20,93.4,73.0,61.2,81.4,68.9,60.6,98,89,52,29.85,29.64,5,1,0,0.00
2013-9-21,80.1,69.2,66.2,79.5,68.6,65.6,98,98,98,29.66,29.51,10,1,0,2.67
2013-9-22,84.6,66.3,55.6,68.7,61.4,55.0,98,87,47,29.71,29.58,6,1,0,0.01
2013-9-23,87.6,65.0,51.3,73.2,60.7,50.8,98,89,53,29.80,29.70,4,1,0,0.00
2013-9-24,89.1,69.0,57.9,78.6,66.2,57.3,98,92,56,29.83,29.64,5,1,0,0.00
2013-9-25,71.4,67.3,64.9,70.8,66.7,64.3,98,98,98,29.66,29.59,4,0,0,0.32
2013-9-26,88.2,70.0,58.6,76.0,66.5,58.0,98,90,52,29.80,29.64,5,1,0,0.00
2013-9-27,91.8,66.7,53.8,76.4,61.6,53.2,98,87,39,29.94,29.80,5,1,0,0.00
2013-9-28,87.6,65.7,55.0,75.9,62.4,54.4,98,91,55,30.01,29.86,5,1,0,0.00
2013-9-29,75.6,65.2,59.5,75.0,64.6,58.9,98,98,98,29.93,29.78,4,1,0,0.00
2013-9-30,84.6,65.7,54.3,76.6,62.4,53.7,98,91,59,29.88,29.75,5,1,0,0.00
2013-10-1,85.6,67.1,56.5,81.8,65.0,55.9,98,94,65,29.94,29.82,4,1,0,0.00
2013-10-2,90.0,69.0,58.5,82.9,66.4,57.9,98,93,62,29.97,29.82,5,1,0,0.00
2013-10-3,93.4,71.6,62.1,82.4,68.7,61.5,98,92,52,29.92,29.79,4,1,0,0.00
2013-10-4,94.1,71.2,59.5,83.8,67.6,58.9,98,90,46,29.95,29.85,4,1,0,0.00
2013-10-5,94.5,72.7,59.4,84.3,68.7,58.8,98,90,54,29.92,29.76,4,1,0,0.00
2013-10-6,87.4,71.6,59.2,79.6,68.2,58.6,98,90,59,29.77,29.55,8,2,0,0.02
2013-10-7,78.3,62.0,50.9,67.0,57.1,50.4,98,87,46,29.85,29.62,8,2,0,0.29
2013-10-8,81.0,59.1,45.0,66.7,54.1,44.5,98,86,49,29.93,29.84,9,1,0,0.00
2013-10-9,86.7,62.2,48.4,73.0,57.9,47.9,98,89,46,30.00,29.87,5,1,0,0.00
2013-10-10,86.0,62.3,49.5,70.3,56.6,49.0,98,86,40,29.96,29.82,6,1,0,0.00
2013-10-11,89.1,63.5,48.2,73.5,58.4,47.7,98,87,46,29.87,29.74,4,1,0,0.00
2013-10-12,90.5,65.3,51.1,74.6,60.2,50.6,98,87,42,29.90,29.78,4,1,0,0.00
2013-10-13,80.8,65.5,54.3,79.3,64.8,53.7,98,98,84,30.01,29.88,5,1,0,0.00
2013-10-14,86.2,69.3,58.5,77.7,66.0,57.9,98,91,58,30.02,29.86,7,1,0,0.00
2013-10-15,78.8,66.3,58.3,78.2,65.7,57.7,98,98,98,29.92,29.78,4,1,0,0.00
2013-10-16,72.9,64.1,57.4,72.3,63.5,56.8,98,98,98,29.84,29.72,7,1,0,0.00
2013-10-17,72.9,63.4,56.5,72.3,62.8,55.9,98,98,98,29.79,29.61,8,1,0,0.36
2013-10-18,73.6,56.4,46.0,61.6,52.9,45.5,98,90,58,29.86,29.73,6,1,0,0.00
2013-10-19,66.2,55.1,48.4,65.6,54.5,47.9,98,98,98,29.82,29.67,8,2,0,0.00
2013-10-20,75.0,50.7,36.0,58.0,44.7,35.5,98,85,36,29.90,29.80,6,1,0,0.00
2013-10-21,76.8,52.5,36.9,64.3,48.2,36.4,98,88,48,29.91,29.76,6,1,0,0.00
2013-10-22,74.3,58.5,50.0,62.3,55.9,49.5,98,92,63,29.79,29.62,5,1,0,0.00
2013-10-23,56.3,47.4,32.4,52.5,45.4,31.9,98,93,68,29.87,29.57,9,2,0,0.00
2013-10-24,58.6,44.3,31.8,51.3,42.2,31.3,98,93,65,30.03,29.85,7,1,0,0.00
2013-10-25,59.9,40.5,27.7,41.2,33.5,27.2,98,81,34,30.22,30.03,5,1,0,0.00
2013-10-26,64.8,43.3,25.2,45.0,33.6,24.7,98,74,33,30.12,29.86,8,2,0,0.00
2013-10-27,69.6,56.7,49.6,60.6,50.9,40.0,98,82,56,29.91,29.84,5,1,0,0.00
2013-10-28,70.2,58.0,50.2,68.3,57.2,49.7,98,97,85,30.05,29.89,7,1,0,0.01
2013-10-29,82.0,60.6,50.0,71.9,57.7,49.5,98,92,50,30.12,29.99,4,1,0,0.00
2013-10-30,84.0,66.2,55.6,75.9,62.0,55.0,98,89,56,30.04,29.88,8,2,0,0.00
2013-10-31,74.8,66.7,57.4,74.2,66.0,56.8,98,98,97,29.90,29.37,13,2,0,0.00
2013-11-1,79.2,64.8,47.1,72.3,60.7,46.6,98,89,52,29.59,29.41,19,3,0,0.52
2013-11-2,70.7,53.6,41.9,60.0,47.7,41.4,98,83,43,29.87,29.56,10,2,0,0.00
2013-11-3,66.4,47.8,35.4,50.9,42.2,34.9,98,84,45,30.09,29.87,8,2,0,0.00
2013-11-4,72.7,48.9,31.6,54.6,42.6,31.1,98,83,38,30.20,30.09,4,1,0,0.00
2013-11-5,73.8,53.2,41.0,54.1,46.1,40.5,98,81,37,30.22,30.07,5,1,0,0.00
2013-11-6,82.6,59.8,41.7,66.0,55.0,41.2,98,86,49,30.09,29.82,6,2,0,0.00
2013-11-7,61.3,52.9,34.0,59.7,48.5,33.5,98,86,51,30.06,29.78,12,3,0,0.49
2013-11-8,62.1,45.0,30.7,37.6,30.9,20.0,98,67,21,30.15,30.02,7,1,0,0.00
2013-11-9,57.4,41.5,27.0,48.1,37.3,26.5,98,87,58,30.10,29.96,5,1,0,0.00
2013-11-10,73.6,51.7,34.2,51.3,41.6,31.1,98,73,35,30.09,29.99,6,1,0,0.00
2013-11-11,70.9,47.0,28.0,44.4,35.2,26.0,98,72,19,30.11,29.90,4,1,0,0.00
2013-11-12,51.6,40.6,27.5,50.4,34.8,20.8,98,80,59,30.33,29.86,11,4,0,0.00
2013-11-13,49.1,31.2,18.7,28.3,23.0,18.2,98,77,33,30.42,30.23,8,2,0,0.00
2013-11-14,63.9,35.9,19.0,37.8,24.7,12.1,98,74,13,30.28,30.04,5,1,0,0.00
2013-11-15,49.5,38.5,27.1,46.4,36.1,26.6,98,92,62,30.07,29.94,4,1,0,0.06
2013-11-16,72.1,53.0,42.6,67.6,51.9,42.1,98,96,76,30.00,29.86,4,1,0,0.00
2013-11-17,67.8,56.9,46.6,67.2,56.3,46.1,98,98,98,29.88,29.57,9,1,0,0.80
2013-11-18,72.1,58.0,41.5,62.0,48.2,30.3,98,76,23,29.94,29.63,9,2,0,0.42
2013-11-19,57.4,44.0,33.3,41.6,35.5,29.4,98,76,38,30.02,29.92,11,3,0,0.00
2013-11-20,65.1,44.2,28.0,41.8,36.1,27.5,98,79,32,30.08,29.92,6,1,0,0.00
2013-11-21,69.6,48.5,33.4,57.1,44.4,32.9,98,88,54,30.16,30.02,5,1,0,0.00
2013-11-22,56.8,53.2,47.8,56.2,52.6,47.3,98,98,98,30.08,29.95,6,1,0,0.18
2013-11-23,53.8,44.9,31.1,52.4,41.3,24.4,98,88,59,30.17,29.97,8,4,0,0.00
2013-11-24,41.9,29.3,22.1,24.3,17.0,4.5,98,64,24,30.36,30.16,11,3,0,0.00
2013-11-25,39.0,30.6,21.0,34.0,23.4,16.6,98,76,51,30.24,29.93,5,1,0,0.08
2013-11-26,44.2,37.5,32.5,43.7,37.0,32.0,98,98,98,29.94,29.46,7,2,0,2.31
2013-11-27,36.5,31.3,26.4,36.0,30.8,25.9,98,98,98,30.04,29.56,6,3,0,0.09
2013-11-28,49.5,30.4,18.0,34.7,25.9,17.5,98,86,46,30.27,30.03,5,1,0,0.05
2013-11-29,55.0,33.4,21.0,43.4,28.9,20.5,98,86,47,30.38,30.26,6,2,0,0.00
2013-11-30,60.3,36.6,22.5,42.0,31.3,22.0,98,85,44,30.31,30.06,5,1,0,0.00
2013-12-1,62.2,43.4,22.8,48.4,37.7,22.3,98,83,49,30.06,29.75,5,1,0,0.00
2013-12-2,50.0,46.5,43.5,49.5,46.0,43.0,98,98,98,29.75,29.57,3,0,0,0.05
2013-12-3,58.6,50.0,45.1,58.0,49.5,44.6,98,98,98,29.64,29.59,4,1,0,0.24
2013-12-4,72.9,59.6,48.0,72.3,59.0,47.5,98,98,98,29.73,29.62,7,2,0,0.00
2013-12-5,74.8,65.8,55.8,74.2,65.2,55.2,98,98,98,29.78,29.65,9,2,0,0.04
2013-12-6,67.5,47.5,37.8,66.9,46.9,37.3,98,98,98,29.94,29.66,9,2,0,1.90
2013-12-7,40.3,37.5,35.8,39.8,37.0,35.3,98,98,98,30.17,29.96,10,4,0,0.02
2013-12-8,43.3,39.3,34.7,42.8,38.8,34.2,98,98,98,30.09,29.82,10,2,0,0.97
2013-12-9,52.5,45.9,40.5,52.0,45.4,40.0,98,98,98,29.91,29.77,5,2,0,0.77
2013-12-10,47.3,35.6,23.9,41.2,34.4,23.4,98,96,71,30.12,29.73,6,2,0,0.63
2013-12-11,52.7,32.0,18.7,40.7,28.4,18.2,98,89,48,30.21,30.08,5,1,0,0.00
2013-12-12,45.5,30.3,21.0,28.4,23.5,11.3,98,81,25,30.29,30.14,5,2,0,0.00
2013-12-13,53.8,34.8,17.8,35.6,26.6,17.3,98,77,36,30.18,29.92,5,1,0,0.00
2013-12-14,47.5,41.9,36.1,47.0,40.6,32.1,98,95,74,29.93,29.55,5,2,0,0.54
2013-12-15,45.7,37.0,29.8,45.2,36.5,29.3,98,98,98,29.95,29.59,10,2,0,0.00
2013-12-16,53.8,38.8,26.8,42.7,35.3,26.3,98,88,60,30.00,29.85,7,3,0,0.00
2013-12-17,59.2,46.0,33.4,44.7,38.6,28.2,98,77,56,29.99,29.74,9,3,0,0.00
2013-12-18,53.4,34.9,22.5,34.4,25.9,19.6,98,76,28,30.12,30.00,5,1,0,0.00
2013-12-19,61.0,38.0,21.9,39.2,29.1,21.4,98,78,26,30.09,29.89,4,1,0,0.00
2013-12-20,61.7,45.1,29.3,51.7,40.4,28.8,98,86,50,29.93,29.82,4,1,0,0.00
2013-12-21,73.8,61.1,48.9,73.2,60.4,48.4,98,98,88,29.82,29.55,11,2,0,0.00
2013-12-22,72.7,59.8,55.0,72.1,59.2,54.4,98,98,98,29.82,29.55,10,3,0,1.99
2013-12-23,54.9,43.5,34.0,54.3,43.0,33.5,98,98,98,30.13,29.78,10,4,0,0.19
2013-12-24,41.0,31.6,19.9,33.3,26.9,19.3,98,85,44,30.26,30.11,6,2,0,0.00
2013-12-25,48.7,28.6,14.9,30.9,23.6,14.4,98,85,47,30.25,30.07,4,1,0,0.00
2013-12-26,54.7,34.1,23.4,37.1,28.8,22.9,98,84,44,30.16,30.06,6,1,0,0.00
2013-12-27,59.4,34.7,20.8,39.8,28.1,20.3,98,82,31,30.26,30.13,3,1,0,0.00
2013-12-28,43.9,33.4,22.8,41.6,32.5,22.3,98,97,82,30.18,29.74,6,1,0,0.59
2013-12-29,50.9,43.2,39.0,50.4,42.7,38.5,98,98,98,29.79,29.60,7,2,0,1.22
2013-12-30,42.6,38.4,34.3,42.1,37.9,33.8,98,98,98,30.00,29.77,7,2,0,0.00
2013-12-31,48.6,32.9,24.3,38.0,29.1,23.8,98,88,48,30.23,29.98,7,1,0,0.00
2014-1-1,53.8,32.1,19.0,38.9,28.2,18.5,98,88,48,30.13,29.84,4,1,0,0.00
2014-1-2,39.7,32.0,20.1,39.2,31.4,19.6,98,98,85,29.93,29.51,9,2,0,0.67